Private Wetterstation Wechselburg
Wetterdaten: Montag, 19.07.2021
Datum Zeit Temp. +2m Bodentemp. Temp.+5cm Temp. Wind Windchill X Diff Temp. Feuchte +2m Feuchte +5cm Luftdruck Regen Wind Richtung Richtung Sonnenschein Taupunkt Windchill Windben
19.07.2021 00:00 17,2 C 21,2 C 16,7 C 16,8 C 16,0 C 0,0 C 85 % 89 % 1016,2 hPa 0,0 l/m 0,0 km/h (0 Bft) W-NW 292 0 min 14,7 C 16,0 C 0,0 km/h (0 Bft)
19.07.2021 00:05 17,2 C 21,2 C 16,7 C 16,8 C 16,0 C 0,0 C 85 % 89 % 1016,2 hPa 0,0 l/m 0,0 km/h (0 Bft) W-NW 292 0 min 14,7 C 16,0 C 0,0 km/h (0 Bft)
19.07.2021 00:10 17,1 C 21,2 C 16,7 C 16,7 C 16,0 C 0,0 C 85 % 90 % 1016,2 hPa 0,0 l/m 0,0 km/h (0 Bft) W-NW 292 0 min 14,6 C 16,0 C 0,0 km/h (0 Bft)
19.07.2021 00:15 17,0 C 21,2 C 16,7 C 16,6 C 15,9 C 0,0 C 85 % 90 % 1016,3 hPa 0,0 l/m 0,0 km/h (0 Bft) W-NW 292 0 min 14,5 C 15,9 C 0,0 km/h (0 Bft)
19.07.2021 00:20 17,0 C 21,2 C 16,6 C 16,6 C 15,9 C 0,0 C 85 % 90 % 1016,3 hPa 0,0 l/m 0,0 km/h (0 Bft) W-NW 292 0 min 14,5 C 15,9 C 0,0 km/h (0 Bft)
19.07.2021 00:25 16,9 C 21,2 C 16,5 C 16,5 C 15,7 C 0,0 C 86 % 90 % 1016,3 hPa 0,0 l/m 0,0 km/h (0 Bft) W-NW 292 0 min 14,5 C 15,7 C 0,0 km/h (0 Bft)
19.07.2021 00:30 16,8 C 21,2 C 16,4 C 16,4 C 15,6 C 0,0 C 86 % 90 % 1016,3 hPa 0,0 l/m 0,0 km/h (0 Bft) W-NW 292 0 min 14,4 C 15,6 C 0,0 km/h (0 Bft)
19.07.2021 00:35 16,7 C 21,1 C 16,3 C 16,3 C 15,6 C 0,0 C 86 % 90 % 1016,2 hPa 0,0 l/m 0,0 km/h (0 Bft) W-NW 292 0 min 14,3 C 15,6 C 0,0 km/h (0 Bft)
19.07.2021 00:40 16,6 C 21,1 C 16,3 C 16,3 C 15,6 C 0,0 C 85 % 90 % 1016,2 hPa 0,0 l/m 0,0 km/h (0 Bft) W-NW 292 0 min 14,1 C 15,6 C 0,0 km/h (0 Bft)
19.07.2021 00:45 16,7 C 21,1 C 16,4 C 16,4 C 15,7 C 0,0 C 86 % 90 % 1016,2 hPa 0,0 l/m 0,0 km/h (0 Bft) W-NW 292 0 min 14,3 C 15,7 C 0,0 km/h (0 Bft)
19.07.2021 00:50 16,6 C 21,2 C 16,4 C 16,3 C 15,7 C 0,0 C 86 % 90 % 1016,2 hPa 0,0 l/m 0,0 km/h (0 Bft) W-NW 292 0 min 14,2 C 15,7 C 0,0 km/h (0 Bft)
19.07.2021 00:55 16,5 C 21,1 C 16,5 C 16,3 C 15,9 C 0,0 C 86 % 90 % 1016,3 hPa 0,0 l/m 0,0 km/h (0 Bft) W-NW 292 0 min 14,1 C 15,9 C 0,0 km/h (0 Bft)
19.07.2021 01:00 16,5 C 21,1 C 16,5 C 16,3 C 16,0 C 0,0 C 86 % 90 % 1016,3 hPa 0,0 l/m 0,0 km/h (0 Bft) W-NW 292 0 min 14,1 C 16,0 C 0,0 km/h (0 Bft)
19.07.2021 01:05 16,4 C 21,1 C 16,4 C 16,2 C 15,9 C 0,0 C 86 % 90 % 1016,3 hPa 0,0 l/m 0,0 km/h (0 Bft) W-NW 292 0 min 14,1 C 15,9 C 0,0 km/h (0 Bft)
19.07.2021 01:10 16,5 C 21,1 C 16,4 C 16,3 C 15,8 C 0,0 C 86 % 90 % 1016,3 hPa 0,0 l/m 0,0 km/h (0 Bft) W-NW 292 0 min 14,1 C 15,8 C 0,0 km/h (0 Bft)
19.07.2021 01:15 16,5 C 21,1 C 16,4 C 16,3 C 15,8 C 0,0 C 86 % 91 % 1016,2 hPa 0,0 l/m 0,0 km/h (0 Bft) W-NW 292 0 min 14,1 C 15,8 C 0,0 km/h (0 Bft)
19.07.2021 01:20 16,4 C 21,1 C 16,3 C 16,2 C 15,7 C 0,0 C 86 % 91 % 1016,2 hPa 0,0 l/m 0,0 km/h (0 Bft) W-NW 292 0 min 14,1 C 15,7 C 0,0 km/h (0 Bft)
19.07.2021 01:25 16,3 C 21,1 C 16,3 C 16,1 C 15,6 C 0,0 C 86 % 91 % 1016,2 hPa 0,0 l/m 0,0 km/h (0 Bft) W-NW 292 0 min 14,0 C 15,6 C 0,0 km/h (0 Bft)
19.07.2021 01:30 16,3 C 21,1 C 16,2 C 16,0 C 15,5 C 0,0 C 86 % 91 % 1016,2 hPa 0,0 l/m 0,0 km/h (0 Bft) W-NW 292 0 min 14,0 C 15,5 C 0,0 km/h (0 Bft)
19.07.2021 01:35 16,3 C 21,1 C 16,2 C 16,0 C 15,4 C 0,0 C 86 % 91 % 1015,9 hPa 0,0 l/m 0,0 km/h (0 Bft) W-NW 292 0 min 14,0 C 15,4 C 0,0 km/h (0 Bft)
19.07.2021 01:40 16,2 C 21,1 C 16,1 C 15,9 C 15,4 C 0,0 C 86 % 91 % 1015,9 hPa 0,0 l/m 0,0 km/h (0 Bft) W-NW 292 0 min 13,9 C 15,4 C 0,0 km/h (0 Bft)
19.07.2021 01:45 16,1 C 21,0 C 16,1 C 15,9 C 15,4 C 0,0 C 86 % 91 % 1015,9 hPa 0,0 l/m 0,0 km/h (0 Bft) W-NW 292 0 min 13,8 C 15,4 C 0,0 km/h (0 Bft)
19.07.2021 01:50 16,1 C 21,0 C 16,1 C 15,9 C 15,4 C 0,0 C 86 % 91 % 1015,9 hPa 0,0 l/m 0,0 km/h (0 Bft) W-NW 292 0 min 13,8 C 15,4 C 0,0 km/h (0 Bft)
19.07.2021 01:55 16,0 C 21,0 C 16,0 C 15,8 C 15,3 C 0,0 C 86 % 91 % 1015,9 hPa 0,0 l/m 0,0 km/h (0 Bft) W-NW 292 0 min 13,7 C 15,3 C 0,0 km/h (0 Bft)
19.07.2021 02:00 16,1 C 21,0 C 16,0 C 15,8 C 15,3 C 0,0 C 87 % 91 % 1015,9 hPa 0,0 l/m 0,0 km/h (0 Bft) W-NW 292 0 min 13,9 C 15,3 C 0,0 km/h (0 Bft)
19.07.2021 02:05 16,0 C 21,0 C 15,9 C 15,8 C 15,3 C 0,0 C 86 % 91 % 1015,9 hPa 0,0 l/m 0,0 km/h (0 Bft) W-NW 292 0 min 13,7 C 15,3 C 0,0 km/h (0 Bft)
19.07.2021 02:10 15,9 C 21,0 C 15,9 C 15,7 C 15,4 C 0,0 C 86 % 91 % 1015,9 hPa 0,0 l/m 0,0 km/h (0 Bft) W-NW 292 0 min 13,6 C 15,4 C 0,0 km/h (0 Bft)
19.07.2021 02:15 15,9 C 21,0 C 16,0 C 15,7 C 15,3 C 0,0 C 86 % 91 % 1015,9 hPa 0,0 l/m 0,0 km/h (0 Bft) W-NW 292 0 min 13,6 C 15,3 C 0,0 km/h (0 Bft)
19.07.2021 02:20 15,9 C 21,0 C 15,9 C 15,7 C 15,4 C 0,0 C 86 % 91 % 1015,9 hPa 0,0 l/m 0,5 km/h (0 Bft) W-NW 292 0 min 13,6 C 15,4 C 0,0 km/h (0 Bft)
19.07.2021 02:25 15,8 C 21,0 C 16,0 C 15,7 C 15,4 C 0,0 C 87 % 91 % 1015,9 hPa 0,0 l/m 0,5 km/h (0 Bft) W-NW 292 0 min 13,6 C 15,4 C 0,0 km/h (0 Bft)
19.07.2021 02:30 15,8 C 21,0 C 16,0 C 15,7 C 15,4 C 0,0 C 87 % 91 % 1015,9 hPa 0,0 l/m 0,0 km/h (0 Bft) W-NW 292 0 min 13,6 C 15,4 C 0,0 km/h (0 Bft)
19.07.2021 02:35 15,7 C 21,0 C 16,0 C 15,6 C 15,4 C 0,0 C 87 % 91 % 1015,9 hPa 0,0 l/m 0,0 km/h (0 Bft) W-NW 292 0 min 13,5 C 15,4 C 0,0 km/h (0 Bft)
19.07.2021 02:40 15,7 C 21,0 C 16,0 C 15,6 C 15,4 C 0,0 C 87 % 91 % 1015,9 hPa 0,0 l/m 0,0 km/h (0 Bft) W-NW 292 0 min 13,5 C 15,4 C 0,0 km/h (0 Bft)
19.07.2021 02:45 15,6 C 20,9 C 15,9 C 15,5 C 15,2 C 0,0 C 87 % 91 % 1015,9 hPa 0,0 l/m 0,0 km/h (0 Bft) W-NW 292 0 min 13,4 C 15,2 C 0,0 km/h (0 Bft)
19.07.2021 02:50 15,6 C 20,9 C 15,9 C 15,5 C 15,2 C 0,0 C 87 % 91 % 1015,9 hPa 0,0 l/m 0,0 km/h (0 Bft) W-NW 292 0 min 13,4 C 15,2 C 0,0 km/h (0 Bft)
19.07.2021 02:55 15,6 C 20,9 C 15,9 C 15,5 C 15,2 C 0,0 C 87 % 91 % 1016,1 hPa 0,0 l/m 0,0 km/h (0 Bft) W-NW 292 0 min 13,4 C 15,2 C 0,0 km/h (0 Bft)
19.07.2021 03:00 15,6 C 20,9 C 15,9 C 15,5 C 15,2 C 0,0 C 87 % 91 % 1016,1 hPa 0,0 l/m 0,0 km/h (0 Bft) W-NW 292 0 min 13,4 C 15,2 C 0,0 km/h (0 Bft)
19.07.2021 03:05 15,5 C 20,9 C 15,9 C 15,5 C 15,4 C 0,0 C 87 % 91 % 1016,1 hPa 0,0 l/m 0,2 km/h (0 Bft) W-NW 292 0 min 13,3 C 15,4 C 1,8 km/h (1 Bft)
19.07.2021 03:10 15,5 C 20,9 C 15,9 C 15,5 C 15,4 C 0,0 C 87 % 91 % 1016,1 hPa 0,0 l/m 0,2 km/h (0 Bft) W-NW 292 0 min 13,3 C 15,4 C 0,0 km/h (0 Bft)
19.07.2021 03:15 15,5 C 20,9 C 15,9 C 15,5 C 15,5 C 0,0 C 87 % 91 % 1016,4 hPa 0,0 l/m 0,2 km/h (0 Bft) W-NW 292 0 min 13,3 C 15,5 C 0,0 km/h (0 Bft)
19.07.2021 03:20 15,4 C 20,9 C 16,0 C 15,6 C 15,6 C 0,2 C 87 % 91 % 1016,4 hPa 0,0 l/m 0,0 km/h (0 Bft) W-NW 292 0 min 13,2 C 15,6 C 0,0 km/h (0 Bft)
19.07.2021 03:25 15,4 C 20,9 C 16,0 C 15,6 C 15,6 C 0,2 C 87 % 91 % 1016,4 hPa 0,0 l/m 0,0 km/h (0 Bft) W-NW 292 0 min 13,2 C 15,6 C 0,0 km/h (0 Bft)
19.07.2021 03:30 15,4 C 20,9 C 16,0 C 15,7 C 15,7 C 0,3 C 87 % 91 % 1016,4 hPa 0,0 l/m 0,0 km/h (0 Bft) W-NW 292 0 min 13,2 C 15,7 C 0,0 km/h (0 Bft)
19.07.2021 03:35 15,4 C 20,9 C 16,1 C 15,8 C 15,8 C 0,4 C 87 % 91 % 1016,4 hPa 0,0 l/m 0,0 km/h (0 Bft) W-NW 292 0 min 13,2 C 15,8 C 0,0 km/h (0 Bft)
19.07.2021 03:40 15,4 C 20,8 C 16,1 C 15,9 C 15,9 C 0,5 C 87 % 91 % 1016,4 hPa 0,0 l/m 0,0 km/h (0 Bft) W-NW 292 0 min 13,2 C 15,9 C 0,0 km/h (0 Bft)
19.07.2021 03:45 15,4 C 20,8 C 16,2 C 15,9 C 15,9 C 0,5 C 87 % 91 % 1016,4 hPa 0,0 l/m 0,0 km/h (0 Bft) W 270 0 min 13,2 C 15,9 C 0,0 km/h (0 Bft)
19.07.2021 03:50 15,5 C 20,8 C 16,2 C 15,9 C 15,9 C 0,4 C 87 % 91 % 1016,4 hPa 0,0 l/m 0,0 km/h (0 Bft) NW 315 0 min 13,3 C 15,9 C 0,0 km/h (0 Bft)
19.07.2021 03:55 15,5 C 20,6 C 16,3 C 16,0 C 16,0 C 0,5 C 87 % 91 % 1016,5 hPa 0,0 l/m 0,3 km/h (0 Bft) W-SW 247 0 min 13,3 C 16,0 C 0,0 km/h (0 Bft)
19.07.2021 04:00 15,6 C 20,6 C 16,4 C 16,2 C 16,2 C 0,6 C 87 % 90 % 1016,5 hPa 0,0 l/m 1,0 km/h (0 Bft) O-SO 112 0 min 13,4 C 16,2 C 2,6 km/h (1 Bft)
19.07.2021 04:05 15,7 C 20,5 C 16,6 C 16,5 C 16,5 C 0,8 C 87 % 90 % 1016,5 hPa 0,0 l/m 1,3 km/h (1 Bft) W-SW 247 0 min 13,5 C 16,5 C 6,1 km/h (2 Bft)
19.07.2021 04:10 15,9 C 20,5 C 16,6 C 16,6 C 16,6 C 0,7 C 87 % 89 % 1016,5 hPa 0,0 l/m 1,0 km/h (0 Bft) W-SW 247 0 min 13,7 C 16,6 C 0,0 km/h (0 Bft)
19.07.2021 04:15 16,1 C 20,5 C 16,7 C 16,8 C 16,8 C 0,7 C 87 % 89 % 1016,7 hPa 0,0 l/m 0,2 km/h (0 Bft) W 270 0 min 13,9 C 16,8 C 0,0 km/h (0 Bft)
19.07.2021 04:20 16,2 C 20,5 C 16,7 C 16,8 C 16,8 C 0,6 C 87 % 89 % 1016,7 hPa 0,0 l/m 0,0 km/h (0 Bft) W 270 0 min 14,0 C 16,8 C 0,0 km/h (0 Bft)
19.07.2021 04:25 16,4 C 20,5 C 16,6 C 16,7 C 16,7 C 0,3 C 87 % 89 % 1016,7 hPa 0,0 l/m 0,0 km/h (0 Bft) NW 315 0 min 14,2 C 16,7 C 0,0 km/h (0 Bft)
19.07.2021 04:30 16,4 C 20,6 C 16,6 C 16,6 C 16,6 C 0,2 C 87 % 89 % 1016,7 hPa 0,0 l/m 0,0 km/h (0 Bft) NW 315 0 min 14,2 C 16,6 C 0,0 km/h (0 Bft)
19.07.2021 04:35 16,5 C 20,6 C 16,5 C 16,5 C 16,5 C 0,0 C 87 % 89 % 1016,9 hPa 0,0 l/m 0,0 km/h (0 Bft) NW 315 0 min 14,3 C 16,5 C 0,0 km/h (0 Bft)
19.07.2021 04:40 16,6 C 20,5 C 16,5 C 16,6 C 16,5 C 0,0 C 86 % 89 % 1016,9 hPa 0,0 l/m 0,0 km/h (0 Bft) NW 315 0 min 14,2 C 16,5 C 0,0 km/h (0 Bft)
19.07.2021 04:45 16,6 C 20,5 C 16,5 C 16,6 C 16,5 C 0,0 C 86 % 89 % 1016,9 hPa 0,0 l/m 0,0 km/h (0 Bft) NW 315 0 min 14,2 C 16,5 C 0,0 km/h (0 Bft)
19.07.2021 04:50 16,7 C 20,6 C 16,5 C 16,6 C 16,5 C 0,0 C 86 % 89 % 1016,9 hPa 0,0 l/m 0,0 km/h (0 Bft) W-SW 247 0 min 14,3 C 16,5 C 0,0 km/h (0 Bft)
19.07.2021 04:55 16,6 C 20,6 C 16,6 C 16,6 C 16,6 C 0,0 C 86 % 89 % 1016,9 hPa 0,0 l/m 0,0 km/h (0 Bft) W-SW 247 0 min 14,2 C 16,6 C 0,0 km/h (0 Bft)
19.07.2021 05:00 16,7 C 20,6 C 16,5 C 16,7 C 16,6 C 0,0 C 86 % 89 % 1016,9 hPa 0,0 l/m 0,3 km/h (0 Bft) NW 315 0 min 14,3 C 16,6 C 0,0 km/h (0 Bft)
19.07.2021 05:05 16,7 C 20,6 C 16,5 C 16,7 C 16,6 C 0,0 C 86 % 89 % 1016,9 hPa 0,0 l/m 0,3 km/h (0 Bft) NW 315 0 min 14,3 C 16,6 C 0,0 km/h (0 Bft)
19.07.2021 05:10 16,7 C 20,6 C 16,5 C 16,7 C 16,6 C 0,0 C 86 % 89 % 1016,9 hPa 0,0 l/m 0,0 km/h (0 Bft) NW 315 0 min 14,3 C 16,6 C 0,0 km/h (0 Bft)
19.07.2021 05:15 16,7 C 20,6 C 16,5 C 16,7 C 16,6 C 0,0 C 86 % 89 % 1017,0 hPa 0,0 l/m 0,0 km/h (0 Bft) NW 315 0 min 14,3 C 16,6 C 0,0 km/h (0 Bft)
19.07.2021 05:20 16,7 C 20,6 C 16,6 C 16,7 C 16,6 C 0,0 C 86 % 89 % 1017,0 hPa 0,0 l/m 0,0 km/h (0 Bft) NW 315 0 min 14,3 C 16,6 C 0,0 km/h (0 Bft)
19.07.2021 05:25 16,7 C 20,5 C 16,6 C 16,7 C 16,6 C 0,0 C 86 % 89 % 1017,0 hPa 0,0 l/m 0,0 km/h (0 Bft) NW 315 0 min 14,3 C 16,6 C 0,0 km/h (0 Bft)
19.07.2021 05:30 16,7 C 20,5 C 16,6 C 16,7 C 16,7 C 0,0 C 86 % 89 % 1017,0 hPa 0,0 l/m 0,0 km/h (0 Bft) NW 315 0 min 14,3 C 16,7 C 0,0 km/h (0 Bft)
19.07.2021 05:35 16,7 C 20,5 C 16,6 C 16,8 C 16,8 C 0,1 C 86 % 89 % 1017,4 hPa 0,0 l/m 0,0 km/h (0 Bft) NW 315 0 min 14,3 C 16,8 C 0,0 km/h (0 Bft)
19.07.2021 05:40 16,8 C 20,5 C 16,6 C 16,8 C 16,8 C 0,0 C 86 % 89 % 1017,4 hPa 0,0 l/m 0,0 km/h (0 Bft) W-SW 247 0 min 14,4 C 16,8 C 0,0 km/h (0 Bft)
19.07.2021 05:45 16,8 C 20,5 C 16,5 C 16,8 C 16,8 C 0,0 C 86 % 89 % 1017,4 hPa 0,0 l/m 0,0 km/h (0 Bft) W-SW 247 0 min 14,4 C 16,8 C 0,0 km/h (0 Bft)
19.07.2021 05:50 16,8 C 20,4 C 16,5 C 16,8 C 16,8 C 0,0 C 86 % 89 % 1017,4 hPa 0,0 l/m 0,0 km/h (0 Bft) SW 225 0 min 14,4 C 16,8 C 1,6 km/h (1 Bft)
19.07.2021 05:55 16,8 C 20,4 C 16,5 C 16,8 C 16,8 C 0,0 C 86 % 89 % 1017,3 hPa 0,0 l/m 0,3 km/h (0 Bft) W-SW 247 0 min 14,4 C 16,8 C 1,6 km/h (1 Bft)
19.07.2021 06:00 16,8 C 20,4 C 16,5 C 16,8 C 16,8 C 0,0 C 86 % 89 % 1017,3 hPa 0,0 l/m 0,8 km/h (0 Bft) W-SW 247 0 min 14,4 C 16,8 C 2,3 km/h (1 Bft)
19.07.2021 06:05 16,8 C 20,4 C 16,5 C 16,8 C 16,7 C 0,0 C 86 % 89 % 1017,3 hPa 0,0 l/m 0,5 km/h (0 Bft) N-NW 337 0 min 14,4 C 16,7 C 0,0 km/h (0 Bft)
19.07.2021 06:10 16,7 C 20,4 C 16,4 C 16,7 C 16,7 C 0,0 C 86 % 88 % 1017,3 hPa 0,0 l/m 0,2 km/h (0 Bft) NW 315 0 min 14,3 C 16,7 C 0,0 km/h (0 Bft)
19.07.2021 06:15 16,7 C 20,4 C 16,4 C 16,7 C 16,6 C 0,0 C 86 % 88 % 1017,6 hPa 0,0 l/m 0,0 km/h (0 Bft) NW 315 0 min 14,3 C 16,6 C 0,0 km/h (0 Bft)
19.07.2021 06:20 16,7 C 20,4 C 16,4 C 16,7 C 16,6 C 0,0 C 86 % 88 % 1017,6 hPa 0,0 l/m 0,2 km/h (0 Bft) W 270 0 min 14,3 C 16,6 C 0,0 km/h (0 Bft)
19.07.2021 06:25 16,7 C 20,4 C 16,4 C 16,7 C 16,6 C 0,0 C 85 % 88 % 1017,6 hPa 0,0 l/m 0,2 km/h (0 Bft) W 270 0 min 14,2 C 16,6 C 2,3 km/h (1 Bft)
19.07.2021 06:30 16,6 C 20,3 C 16,4 C 16,6 C 16,6 C 0,0 C 85 % 88 % 1017,6 hPa 0,0 l/m 0,2 km/h (0 Bft) S 180 0 min 14,1 C 16,6 C 0,0 km/h (0 Bft)
19.07.2021 06:35 16,7 C 20,3 C 16,3 C 16,7 C 16,6 C 0,0 C 85 % 87 % 1017,9 hPa 0,0 l/m 0,3 km/h (0 Bft) W 270 0 min 14,2 C 16,6 C 3,9 km/h (1 Bft)
19.07.2021 06:40 16,6 C 20,3 C 16,3 C 16,6 C 16,6 C 0,0 C 85 % 88 % 1017,9 hPa 0,0 l/m 0,6 km/h (0 Bft) W-SW 247 0 min 14,1 C 16,6 C 1,8 km/h (1 Bft)
19.07.2021 06:45 16,5 C 20,3 C 16,3 C 16,6 C 16,6 C 0,1 C 85 % 87 % 1017,9 hPa 0,0 l/m 1,1 km/h (1 Bft) W-SW 247 0 min 14,0 C 16,6 C 2,3 km/h (1 Bft)
19.07.2021 06:50 16,5 C 20,3 C 16,3 C 16,6 C 16,6 C 0,1 C 85 % 87 % 1017,9 hPa 0,0 l/m 0,8 km/h (0 Bft) W 270 0 min 14,0 C 16,6 C 0,0 km/h (0 Bft)
19.07.2021 06:55 16,5 C 20,3 C 16,3 C 16,7 C 16,7 C 0,2 C 85 % 87 % 1017,9 hPa 0,0 l/m 0,5 km/h (0 Bft) W-SW 247 0 min 14,0 C 16,7 C 0,0 km/h (0 Bft)
19.07.2021 07:00 16,5 C 20,3 C 16,3 C 16,7 C 16,7 C 0,2 C 84 % 87 % 1017,9 hPa 0,0 l/m 0,3 km/h (0 Bft) W-NW 292 0 min 13,8 C 16,7 C 0,0 km/h (0 Bft)
19.07.2021 07:05 16,5 C 20,2 C 16,3 C 16,6 C 16,6 C 0,1 C 84 % 87 % 1017,9 hPa 0,0 l/m 0,0 km/h (0 Bft) S-SW 202 0 min 13,8 C 16,6 C 0,0 km/h (0 Bft)
19.07.2021 07:10 16,5 C 20,2 C 16,3 C 16,6 C 16,6 C 0,1 C 84 % 87 % 1017,9 hPa 0,0 l/m 0,0 km/h (0 Bft) W-SW 247 0 min 13,8 C 16,6 C 0,0 km/h (0 Bft)
19.07.2021 07:15 16,4 C 20,2 C 16,3 C 16,6 C 16,6 C 0,2 C 84 % 87 % 1018,2 hPa 0,0 l/m 0,2 km/h (0 Bft) S-SW 202 0 min 13,7 C 16,6 C 0,0 km/h (0 Bft)
19.07.2021 07:20 16,5 C 20,2 C 16,2 C 16,6 C 16,6 C 0,1 C 84 % 87 % 1018,2 hPa 0,0 l/m 0,6 km/h (0 Bft) W 270 0 min 13,8 C 16,6 C 4,5 km/h (1 Bft)
19.07.2021 07:25 16,4 C 20,2 C 16,1 C 16,5 C 16,5 C 0,1 C 84 % 86 % 1018,2 hPa 0,0 l/m 1,1 km/h (1 Bft) W 270 0 min 13,7 C 16,5 C 0,0 km/h (0 Bft)
19.07.2021 07:30 16,3 C 20,1 C 16,1 C 16,4 C 16,4 C 0,1 C 84 % 87 % 1018,2 hPa 0,0 l/m 1,1 km/h (1 Bft) SW 225 0 min 13,6 C 16,4 C 0,0 km/h (0 Bft)
19.07.2021 07:35 16,3 C 20,1 C 16,1 C 16,4 C 16,4 C 0,1 C 83 % 86 % 1018,8 hPa 0,0 l/m 1,1 km/h (1 Bft) W 270 0 min 13,4 C 16,4 C 0,0 km/h (0 Bft)
19.07.2021 07:40 16,3 C 20,1 C 16,0 C 16,3 C 16,3 C 0,0 C 83 % 86 % 1018,8 hPa 0,0 l/m 1,1 km/h (1 Bft) W-SW 247 0 min 13,4 C 16,3 C 2,3 km/h (1 Bft)
19.07.2021 07:45 16,3 C 20,1 C 15,9 C 16,3 C 16,3 C 0,0 C 83 % 86 % 1018,8 hPa 0,0 l/m 0,3 km/h (0 Bft) W-SW 247 0 min 13,4 C 16,3 C 0,0 km/h (0 Bft)
19.07.2021 07:50 16,1 C 20,1 C 16,0 C 16,3 C 16,3 C 0,2 C 83 % 86 % 1018,8 hPa 0,0 l/m 0,2 km/h (0 Bft) W-NW 292 0 min 13,2 C 16,3 C 0,0 km/h (0 Bft)
19.07.2021 07:55 16,1 C 20,1 C 16,0 C 16,4 C 16,4 C 0,3 C 83 % 85 % 1019,8 hPa 0,0 l/m 0,5 km/h (0 Bft) SW 225 0 min 13,2 C 16,4 C 0,0 km/h (0 Bft)
19.07.2021 08:00 16,1 C 20,0 C 16,0 C 16,6 C 16,6 C 0,5 C 83 % 85 % 1019,8 hPa 0,0 l/m 0,8 km/h (0 Bft) SW 225 0 min 13,2 C 16,6 C 0,0 km/h (0 Bft)
19.07.2021 08:05 16,0 C 20,0 C 16,0 C 16,6 C 16,6 C 0,6 C 82 % 85 % 1019,8 hPa 0,0 l/m 1,0 km/h (0 Bft) W 270 0 min 12,9 C 16,6 C 0,0 km/h (0 Bft)
19.07.2021 08:10 16,0 C 20,0 C 15,9 C 16,6 C 16,6 C 0,6 C 82 % 85 % 1019,8 hPa 0,0 l/m 1,3 km/h (1 Bft) W 270 0 min 12,9 C 16,6 C 2,1 km/h (1 Bft)
19.07.2021 08:15 16,1 C 20,0 C 15,9 C 16,7 C 16,7 C 0,6 C 82 % 84 % 1019,3 hPa 0,0 l/m 1,0 km/h (0 Bft) W-SW 247 0 min 13,0 C 16,7 C 0,0 km/h (0 Bft)
19.07.2021 08:20 16,0 C 20,0 C 15,9 C 16,7 C 16,7 C 0,7 C 81 % 84 % 1019,3 hPa 0,0 l/m 0,5 km/h (0 Bft) N-NW 337 0 min 12,7 C 16,7 C 0,0 km/h (0 Bft)
19.07.2021 08:25 16,1 C 20,0 C 15,9 C 16,8 C 16,8 C 0,7 C 81 % 84 % 1019,3 hPa 0,0 l/m 0,3 km/h (0 Bft) W-NW 292 0 min 12,8 C 16,8 C 0,0 km/h (0 Bft)
19.07.2021 08:30 16,0 C 19,9 C 15,9 C 16,8 C 16,8 C 0,8 C 81 % 84 % 1019,3 hPa 0,0 l/m 0,8 km/h (0 Bft) W-SW 247 0 min 12,7 C 16,8 C 1,8 km/h (1 Bft)
19.07.2021 08:35 15,8 C 20,0 C 15,8 C 16,7 C 16,7 C 0,9 C 81 % 84 % 1019,2 hPa 0,0 l/m 1,6 km/h (1 Bft) S 180 0 min 12,5 C 16,7 C 0,0 km/h (0 Bft)
19.07.2021 08:40 15,8 C 19,9 C 15,8 C 16,8 C 16,8 C 1,0 C 81 % 84 % 1019,2 hPa 0,0 l/m 1,3 km/h (1 Bft) NW 315 0 min 12,5 C 16,8 C 2,9 km/h (1 Bft)
19.07.2021 08:45 15,9 C 19,9 C 15,7 C 16,8 C 16,8 C 0,9 C 81 % 83 % 1019,2 hPa 0,0 l/m 1,3 km/h (1 Bft) SW 225 0 min 12,6 C 16,8 C 8,4 km/h (2 Bft)
19.07.2021 08:50 15,9 C 19,9 C 15,7 C 16,8 C 16,8 C 0,9 C 81 % 82 % 1019,2 hPa 0,0 l/m 2,4 km/h (1 Bft) W-SW 247 0 min 12,6 C 16,8 C 3,9 km/h (1 Bft)
19.07.2021 08:55 15,7 C 19,9 C 15,8 C 17,0 C 17,0 C 1,3 C 81 % 82 % 1020,9 hPa 0,0 l/m 2,7 km/h (1 Bft) W 270 0 min 12,4 C 17,0 C 5,8 km/h (2 Bft)
19.07.2021 09:00 15,9 C 19,8 C 15,8 C 17,2 C 17,2 C 1,3 C 80 % 81 % 1020,9 hPa 0,0 l/m 2,1 km/h (1 Bft) W 270 0 min 12,5 C 17,2 C 1,9 km/h (1 Bft)
19.07.2021 09:05 15,7 C 19,8 C 15,8 C 17,2 C 17,2 C 1,5 C 79 % 79 % 1020,9 hPa 0,0 l/m 2,3 km/h (1 Bft) W-SW 247 0 min 12,1 C 17,2 C 3,2 km/h (1 Bft)
19.07.2021 09:10 15,7 C 19,8 C 15,8 C 17,2 C 17,2 C 1,5 C 78 % 79 % 1020,9 hPa 0,0 l/m 2,4 km/h (1 Bft) W 270 0 min 11,9 C 17,2 C 3,5 km/h (1 Bft)
19.07.2021 09:15 15,9 C 19,8 C 15,9 C 17,5 C 17,5 C 1,6 C 78 % 79 % 1020,8 hPa 0,0 l/m 2,4 km/h (1 Bft) N-NW 337 0 min 12,1 C 17,5 C 0,0 km/h (0 Bft)
19.07.2021 09:20 15,9 C 19,7 C 15,9 C 17,8 C 17,8 C 1,9 C 78 % 79 % 1020,8 hPa 0,0 l/m 1,9 km/h (1 Bft) W 270 0 min 12,1 C 17,8 C 5,5 km/h (1 Bft)
19.07.2021 09:25 16,1 C 19,7 C 16,1 C 18,1 C 18,1 C 2,0 C 77 % 77 % 1020,8 hPa 0,0 l/m 1,9 km/h (1 Bft) NW 315 0 min 12,1 C 18,1 C 9,5 km/h (2 Bft)
19.07.2021 09:30 16,1 C 19,7 C 16,3 C 18,6 C 18,6 C 2,5 C 77 % 77 % 1020,8 hPa 0,0 l/m 2,1 km/h (1 Bft) S 180 0 min 12,1 C 18,6 C 3,1 km/h (1 Bft)
19.07.2021 09:35 16,4 C 19,7 C 16,5 C 19,4 C 19,4 C 3,0 C 76 % 76 % 1021,0 hPa 0,0 l/m 1,4 km/h (1 Bft) W-NW 292 0 min 12,2 C 19,4 C 2,1 km/h (1 Bft)
19.07.2021 09:40 16,5 C 19,7 C 16,6 C 20,1 C 20,1 C 3,6 C 76 % 77 % 1021,0 hPa 0,0 l/m 1,6 km/h (1 Bft) W 270 5 min 12,3 C 20,1 C 0,0 km/h (0 Bft)
19.07.2021 09:45 17,1 C 19,7 C 16,8 C 21,1 C 21,1 C 4,0 C 75 % 76 % 1021,0 hPa 0,0 l/m 1,1 km/h (1 Bft) W 270 5 min 12,6 C 21,1 C 5,6 km/h (1 Bft)
19.07.2021 09:50 17,2 C 19,7 C 17,0 C 21,4 C 21,4 C 4,2 C 74 % 76 % 1021,0 hPa 0,0 l/m 1,6 km/h (1 Bft) N 360 5 min 12,5 C 21,4 C 5,8 km/h (2 Bft)
19.07.2021 09:55 17,3 C 19,6 C 17,1 C 21,4 C 21,4 C 4,1 C 74 % 76 % 1021,0 hPa 0,0 l/m 1,4 km/h (1 Bft) SO 135 5 min 12,6 C 21,4 C 0,0 km/h (0 Bft)
19.07.2021 10:00 17,5 C 19,6 C 17,2 C 21,6 C 21,6 C 4,1 C 74 % 77 % 1021,0 hPa 0,0 l/m 0,6 km/h (0 Bft) S-SO 157 5 min 12,8 C 21,6 C 0,0 km/h (0 Bft)
19.07.2021 10:05 17,5 C 19,6 C 17,2 C 21,6 C 21,6 C 4,1 C 73 % 76 % 1021,0 hPa 0,0 l/m 1,4 km/h (1 Bft) S 180 5 min 12,6 C 21,6 C 3,1 km/h (1 Bft)
19.07.2021 10:10 17,5 C 19,6 C 17,3 C 21,7 C 21,7 C 4,2 C 73 % 76 % 1021,0 hPa 0,0 l/m 1,3 km/h (1 Bft) SW 225 5 min 12,6 C 21,7 C 1,9 km/h (1 Bft)
19.07.2021 10:15 17,7 C 19,6 C 17,4 C 22,1 C 22,1 C 4,4 C 72 % 76 % 1020,4 hPa 0,0 l/m 0,8 km/h (0 Bft) NW 315 5 min 12,6 C 22,1 C 4,0 km/h (1 Bft)
19.07.2021 10:20 17,6 C 19,6 C 17,3 C 21,7 C 21,7 C 4,1 C 72 % 75 % 1020,4 hPa 0,0 l/m 1,4 km/h (1 Bft) W 270 5 min 12,5 C 21,7 C 0,0 km/h (0 Bft)
19.07.2021 10:25 17,8 C 19,6 C 17,5 C 21,7 C 21,7 C 3,9 C 72 % 76 % 1020,4 hPa 0,0 l/m 1,9 km/h (1 Bft) NW 315 5 min 12,7 C 21,7 C 4,8 km/h (1 Bft)
19.07.2021 10:30 17,7 C 19,6 C 17,4 C 21,3 C 21,3 C 3,6 C 71 % 74 % 1020,4 hPa 0,0 l/m 2,6 km/h (1 Bft) W 270 5 min 12,4 C 21,3 C 7,2 km/h (2 Bft)
19.07.2021 10:35 17,8 C 19,6 C 17,5 C 21,3 C 21,3 C 3,5 C 71 % 75 % 1020,6 hPa 0,0 l/m 2,4 km/h (1 Bft) W-SW 247 5 min 12,5 C 21,3 C 2,6 km/h (1 Bft)
19.07.2021 10:40 17,9 C 19,6 C 17,6 C 21,6 C 21,6 C 3,7 C 71 % 75 % 1020,6 hPa 0,0 l/m 1,9 km/h (1 Bft) N-NW 337 5 min 12,6 C 21,6 C 2,4 km/h (1 Bft)
19.07.2021 10:45 17,9 C 19,5 C 17,6 C 21,3 C 21,3 C 3,4 C 71 % 75 % 1020,6 hPa 0,0 l/m 2,4 km/h (1 Bft) S-SO 157 5 min 12,6 C 21,3 C 4,8 km/h (1 Bft)
19.07.2021 10:50 17,7 C 19,5 C 17,6 C 21,2 C 21,2 C 3,5 C 71 % 75 % 1020,6 hPa 0,0 l/m 1,6 km/h (1 Bft) W 270 5 min 12,4 C 21,2 C 3,9 km/h (1 Bft)
19.07.2021 10:55 17,7 C 19,5 C 17,6 C 21,1 C 21,1 C 3,4 C 71 % 73 % 1020,3 hPa 0,0 l/m 1,6 km/h (1 Bft) SO 135 5 min 12,4 C 21,1 C 2,1 km/h (1 Bft)
19.07.2021 11:00 17,6 C 19,5 C 17,6 C 21,2 C 21,2 C 3,6 C 70 % 73 % 1020,3 hPa 0,0 l/m 2,4 km/h (1 Bft) S-SO 157 5 min 12,1 C 21,2 C 2,3 km/h (1 Bft)
19.07.2021 11:05 17,6 C 19,5 C 17,6 C 20,9 C 20,9 C 3,3 C 70 % 73 % 1020,3 hPa 0,0 l/m 2,9 km/h (1 Bft) S-SW 202 5 min 12,1 C 20,9 C 2,7 km/h (1 Bft)
19.07.2021 11:10 17,6 C 19,5 C 17,6 C 20,9 C 20,9 C 3,3 C 70 % 73 % 1020,3 hPa 0,0 l/m 2,4 km/h (1 Bft) N-NW 337 5 min 12,1 C 20,9 C 1,8 km/h (1 Bft)
19.07.2021 11:15 17,6 C 19,5 C 17,6 C 20,7 C 20,7 C 3,1 C 70 % 73 % 1020,7 hPa 0,0 l/m 2,1 km/h (1 Bft) W 270 0 min 12,1 C 20,7 C 2,1 km/h (1 Bft)
19.07.2021 11:20 17,6 C 19,5 C 17,6 C 20,9 C 20,9 C 3,3 C 70 % 73 % 1020,7 hPa 0,0 l/m 2,1 km/h (1 Bft) S-SW 202 5 min 12,1 C 20,9 C 4,0 km/h (1 Bft)
19.07.2021 11:25 17,6 C 19,5 C 17,6 C 21,0 C 21,0 C 3,4 C 70 % 71 % 1020,7 hPa 0,0 l/m 2,3 km/h (1 Bft) SW 225 5 min 12,1 C 21,0 C 4,7 km/h (1 Bft)
19.07.2021 11:30 17,6 C 19,5 C 17,6 C 21,0 C 21,0 C 3,4 C 70 % 73 % 1020,7 hPa 0,0 l/m 2,4 km/h (1 Bft) SW 225 5 min 12,1 C 21,0 C 4,5 km/h (1 Bft)
19.07.2021 11:35 17,6 C 19,5 C 17,6 C 20,7 C 20,7 C 3,1 C 70 % 73 % 1019,9 hPa 0,0 l/m 2,3 km/h (1 Bft) W-SW 247 0 min 12,1 C 20,7 C 2,1 km/h (1 Bft)
19.07.2021 11:40 17,7 C 19,5 C 17,7 C 20,8 C 20,8 C 3,1 C 70 % 74 % 1019,9 hPa 0,0 l/m 1,8 km/h (1 Bft) SW 225 0 min 12,2 C 20,8 C 2,3 km/h (1 Bft)
19.07.2021 11:45 17,8 C 19,4 C 17,9 C 21,6 C 21,6 C 3,8 C 70 % 73 % 1019,9 hPa 0,0 l/m 0,8 km/h (0 Bft) SW 225 5 min 12,3 C 21,6 C 1,6 km/h (1 Bft)
19.07.2021 11:50 18,0 C 19,4 C 18,0 C 21,9 C 21,9 C 3,9 C 70 % 71 % 1019,9 hPa 0,0 l/m 1,1 km/h (1 Bft) N-NO 22 5 min 12,4 C 21,9 C 1,6 km/h (1 Bft)
19.07.2021 11:55 18,1 C 19,4 C 17,9 C 21,9 C 21,9 C 3,8 C 68 % 71 % 1019,6 hPa 0,0 l/m 2,6 km/h (1 Bft) SW 225 5 min 12,1 C 21,9 C 1,8 km/h (1 Bft)
19.07.2021 12:00 18,1 C 19,4 C 18,0 C 22,1 C 22,1 C 4,0 C 68 % 72 % 1019,6 hPa 0,0 l/m 2,9 km/h (1 Bft) W-SW 247 5 min 12,1 C 22,1 C 3,2 km/h (1 Bft)
19.07.2021 12:05 18,3 C 19,4 C 18,2 C 22,4 C 22,4 C 4,1 C 68 % 72 % 1019,6 hPa 0,0 l/m 2,3 km/h (1 Bft) W 270 5 min 12,3 C 22,4 C 3,7 km/h (1 Bft)
19.07.2021 12:10 18,3 C 19,3 C 18,3 C 22,6 C 22,6 C 4,3 C 67 % 70 % 1019,6 hPa 0,0 l/m 2,4 km/h (1 Bft) S-SO 157 5 min 12,1 C 22,6 C 4,0 km/h (1 Bft)
19.07.2021 12:15 18,3 C 19,4 C 18,2 C 22,3 C 22,3 C 4,0 C 67 % 70 % 1019,4 hPa 0,0 l/m 2,6 km/h (1 Bft) W-SW 247 5 min 12,1 C 22,3 C 0,0 km/h (0 Bft)
19.07.2021 12:20 18,3 C 19,4 C 18,1 C 22,3 C 22,3 C 4,0 C 67 % 71 % 1019,4 hPa 0,0 l/m 2,6 km/h (1 Bft) S-SW 202 5 min 12,1 C 22,3 C 3,9 km/h (1 Bft)
19.07.2021 12:25 18,5 C 19,3 C 18,3 C 23,1 C 23,1 C 4,6 C 67 % 71 % 1019,4 hPa 0,0 l/m 1,9 km/h (1 Bft) S 180 5 min 12,3 C 23,1 C 4,2 km/h (1 Bft)
19.07.2021 12:30 18,5 C 19,3 C 18,4 C 23,3 C 23,3 C 4,8 C 66 % 69 % 1019,4 hPa 0,0 l/m 2,4 km/h (1 Bft) NW 315 5 min 12,0 C 23,3 C 4,7 km/h (1 Bft)
19.07.2021 12:35 18,8 C 19,3 C 18,6 C 23,7 C 23,7 C 4,9 C 66 % 71 % 1019,2 hPa 0,0 l/m 1,9 km/h (1 Bft) S 180 5 min 12,3 C 23,7 C 2,3 km/h (1 Bft)
19.07.2021 12:40 18,8 C 19,2 C 18,5 C 23,5 C 23,5 C 4,7 C 65 % 69 % 1019,2 hPa 0,0 l/m 2,3 km/h (1 Bft) S-SO 157 5 min 12,1 C 23,5 C 2,3 km/h (1 Bft)
19.07.2021 12:45 18,7 C 19,2 C 18,6 C 23,1 C 23,1 C 4,4 C 64 % 69 % 1019,2 hPa 0,0 l/m 2,3 km/h (1 Bft) S-SW 202 5 min 11,7 C 23,1 C 2,6 km/h (1 Bft)
19.07.2021 12:50 18,9 C 19,2 C 18,7 C 24,1 C 24,1 C 5,2 C 64 % 69 % 1019,2 hPa 0,0 l/m 2,4 km/h (1 Bft) SW 225 5 min 11,9 C 24,1 C 1,8 km/h (1 Bft)
19.07.2021 12:55 19,1 C 19,2 C 18,7 C 24,1 C 24,1 C 5,0 C 64 % 70 % 1019,3 hPa 0,0 l/m 2,3 km/h (1 Bft) S-SW 202 5 min 12,1 C 24,1 C 10,1 km/h (2 Bft)
19.07.2021 13:00 19,1 C 19,2 C 18,7 C 24,0 C 24,0 C 4,9 C 63 % 68 % 1019,3 hPa 0,0 l/m 1,9 km/h (1 Bft) S 180 5 min 11,9 C 24,0 C 4,5 km/h (1 Bft)
19.07.2021 13:05 19,2 C 19,2 C 18,8 C 23,6 C 23,6 C 4,4 C 63 % 69 % 1019,3 hPa 0,0 l/m 1,9 km/h (1 Bft) W-SW 247 5 min 12,0 C 23,6 C 2,6 km/h (1 Bft)
19.07.2021 13:10 19,3 C 19,2 C 18,8 C 23,6 C 23,6 C 4,3 C 63 % 69 % 1019,3 hPa 0,0 l/m 2,3 km/h (1 Bft) S-SW 202 5 min 12,1 C 23,6 C 2,1 km/h (1 Bft)
19.07.2021 13:15 19,3 C 19,2 C 19,0 C 24,0 C 24,0 C 4,7 C 63 % 68 % 1019,2 hPa 0,0 l/m 1,9 km/h (1 Bft) W 270 5 min 12,1 C 24,0 C 3,5 km/h (1 Bft)
19.07.2021 13:20 19,3 C 19,2 C 19,0 C 23,8 C 23,8 C 4,5 C 63 % 68 % 1019,2 hPa 0,0 l/m 1,6 km/h (1 Bft) S 180 5 min 12,1 C 23,8 C 1,8 km/h (1 Bft)
19.07.2021 13:25 19,5 C 19,2 C 18,8 C 23,5 C 23,5 C 4,0 C 62 % 69 % 1019,2 hPa 0,0 l/m 1,4 km/h (1 Bft) N 360 5 min 12,0 C 23,5 C 0,0 km/h (0 Bft)
19.07.2021 13:30 19,3 C 19,2 C 18,9 C 23,1 C 23,1 C 3,8 C 63 % 68 % 1019,2 hPa 0,0 l/m 1,1 km/h (1 Bft) O-SO 112 5 min 12,1 C 23,1 C 0,0 km/h (0 Bft)
19.07.2021 13:35 19,5 C 19,2 C 18,9 C 23,8 C 23,8 C 4,3 C 62 % 66 % 1019,1 hPa 0,0 l/m 1,1 km/h (1 Bft) NW 315 5 min 12,0 C 23,8 C 4,7 km/h (1 Bft)
19.07.2021 13:40 19,5 C 19,2 C 18,9 C 23,7 C 23,7 C 4,2 C 61 % 68 % 1019,1 hPa 0,0 l/m 1,6 km/h (1 Bft) SW 225 5 min 11,8 C 23,7 C 0,0 km/h (0 Bft)
19.07.2021 13:45 19,6 C 19,2 C 19,0 C 24,2 C 24,2 C 4,6 C 61 % 67 % 1019,1 hPa 0,0 l/m 2,1 km/h (1 Bft) SW 225 5 min 11,9 C 24,2 C 2,6 km/h (1 Bft)
19.07.2021 13:50 19,7 C 19,2 C 19,1 C 24,1 C 24,1 C 4,4 C 61 % 67 % 1019,1 hPa 0,0 l/m 1,8 km/h (1 Bft) SW 225 5 min 12,0 C 24,1 C 3,5 km/h (1 Bft)
19.07.2021 13:55 19,9 C 19,2 C 19,2 C 24,3 C 24,3 C 4,4 C 61 % 67 % 1019,1 hPa 0,0 l/m 1,4 km/h (1 Bft) SW 225 5 min 12,2 C 24,3 C 3,5 km/h (1 Bft)
19.07.2021 14:00 19,9 C 19,1 C 19,2 C 24,5 C 24,5 C 4,6 C 60 % 67 % 1019,1 hPa 0,0 l/m 1,9 km/h (1 Bft) W-SW 247 5 min 11,9 C 24,5 C 3,7 km/h (1 Bft)
19.07.2021 14:05 19,7 C 19,1 C 19,1 C 23,9 C 23,9 C 4,2 C 60 % 67 % 1019,1 hPa 0,0 l/m 2,7 km/h (1 Bft) NW 315 5 min 11,7 C 23,9 C 3,2 km/h (1 Bft)
19.07.2021 14:10 19,9 C 19,1 C 19,5 C 24,6 C 24,6 C 4,7 C 60 % 68 % 1019,1 hPa 0,0 l/m 2,4 km/h (1 Bft) S 180 5 min 11,9 C 24,6 C 2,3 km/h (1 Bft)
19.07.2021 14:15 20,7 C 19,1 C 20,2 C 26,3 C 26,3 C 5,6 C 60 % 66 % 1019,4 hPa 0,0 l/m 2,1 km/h (1 Bft) S 180 5 min 12,7 C 26,3 C 4,3 km/h (1 Bft)
19.07.2021 14:20 21,1 C 19,1 C 20,4 C 27,1 C 27,1 C 6,0 C 58 % 65 % 1019,4 hPa 0,0 l/m 1,9 km/h (1 Bft) W-SW 247 5 min 12,5 C 27,1 C 3,2 km/h (1 Bft)
19.07.2021 14:25 21,1 C 19,1 C 19,9 C 26,4 C 26,4 C 5,3 C 57 % 63 % 1019,4 hPa 0,0 l/m 2,1 km/h (1 Bft) SW 225 5 min 12,2 C 26,4 C 1,6 km/h (1 Bft)
19.07.2021 14:30 20,9 C 19,1 C 20,1 C 26,0 C 26,0 C 5,1 C 56 % 65 % 1019,4 hPa 0,0 l/m 1,9 km/h (1 Bft) NW 315 5 min 11,8 C 26,0 C 0,0 km/h (0 Bft)
19.07.2021 14:35 21,1 C 19,1 C 20,3 C 26,7 C 26,7 C 5,6 C 56 % 64 % 1019,3 hPa 0,0 l/m 1,9 km/h (1 Bft) SW 225 5 min 12,0 C 26,7 C 2,1 km/h (1 Bft)
19.07.2021 14:40 21,3 C 19,1 C 20,5 C 27,6 C 27,6 C 6,3 C 57 % 65 % 1019,3 hPa 0,0 l/m 1,9 km/h (1 Bft) S 180 5 min 12,4 C 27,6 C 3,9 km/h (1 Bft)
19.07.2021 14:45 21,8 C 19,1 C 20,9 C 28,9 C 28,9 C 7,1 C 56 % 64 % 1019,3 hPa 0,0 l/m 2,3 km/h (1 Bft) S 180 5 min 12,6 C 28,9 C 5,5 km/h (1 Bft)
19.07.2021 14:50 21,8 C 19,2 C 21,1 C 29,3 C 29,3 C 7,5 C 56 % 63 % 1019,3 hPa 0,0 l/m 2,6 km/h (1 Bft) N-NO 22 5 min 12,6 C 29,3 C 2,4 km/h (1 Bft)
19.07.2021 14:55 21,9 C 19,2 C 21,1 C 29,5 C 29,5 C 7,6 C 54 % 61 % 1018,9 hPa 0,0 l/m 2,6 km/h (1 Bft) NW 315 5 min 12,2 C 29,5 C 3,5 km/h (1 Bft)
19.07.2021 15:00 21,8 C 19,2 C 21,0 C 29,3 C 29,3 C 7,5 C 55 % 62 % 1018,9 hPa 0,0 l/m 2,4 km/h (1 Bft) W 270 5 min 12,4 C 29,3 C 3,1 km/h (1 Bft)
19.07.2021 15:05 21,7 C 19,2 C 20,7 C 28,2 C 28,2 C 6,5 C 55 % 60 % 1018,9 hPa 0,0 l/m 2,3 km/h (1 Bft) W-NW 292 5 min 12,3 C 28,2 C 7,9 km/h (2 Bft)
19.07.2021 15:10 21,5 C 19,2 C 20,6 C 27,3 C 27,3 C 5,8 C 55 % 59 % 1018,9 hPa 0,0 l/m 2,7 km/h (1 Bft) NW 315 5 min 12,1 C 27,3 C 6,6 km/h (2 Bft)
19.07.2021 15:15 21,2 C 19,2 C 20,6 C 27,6 C 27,6 C 6,4 C 57 % 60 % 1018,9 hPa 0,0 l/m 2,4 km/h (1 Bft) O-NO 67 5 min 12,3 C 27,6 C 2,4 km/h (1 Bft)
19.07.2021 15:20 21,3 C 19,2 C 20,6 C 28,1 C 28,1 C 6,8 C 57 % 59 % 1018,9 hPa 0,0 l/m 1,9 km/h (1 Bft) NW 315 5 min 12,4 C 28,1 C 2,1 km/h (1 Bft)
19.07.2021 15:25 21,3 C 19,2 C 20,6 C 28,7 C 28,7 C 7,4 C 58 % 60 % 1018,9 hPa 0,0 l/m 1,9 km/h (1 Bft) W-SW 247 5 min 12,7 C 28,7 C 4,8 km/h (1 Bft)
19.07.2021 15:30 21,3 C 19,2 C 20,6 C 28,9 C 28,9 C 7,6 C 56 % 60 % 1018,9 hPa 0,0 l/m 2,1 km/h (1 Bft) SO 135 5 min 12,2 C 28,9 C 2,3 km/h (1 Bft)
19.07.2021 15:35 20,9 C 19,2 C 20,3 C 26,8 C 26,8 C 5,9 C 56 % 59 % 1018,8 hPa 0,0 l/m 3,1 km/h (1 Bft) S-SW 202 5 min 11,8 C 26,8 C 3,1 km/h (1 Bft)
19.07.2021 15:40 20,6 C 19,2 C 20,0 C 25,7 C 25,7 C 5,1 C 56 % 59 % 1018,8 hPa 0,0 l/m 2,9 km/h (1 Bft) W 270 5 min 11,5 C 25,7 C 7,2 km/h (2 Bft)
19.07.2021 15:45 20,6 C 19,2 C 19,9 C 24,9 C 24,9 C 4,3 C 57 % 60 % 1018,8 hPa 0,0 l/m 2,6 km/h (1 Bft) W 270 5 min 11,8 C 24,9 C 2,6 km/h (1 Bft)
19.07.2021 15:50 20,5 C 19,2 C 19,7 C 24,3 C 24,3 C 3,8 C 57 % 60 % 1018,8 hPa 0,0 l/m 2,9 km/h (1 Bft) N-NO 22 5 min 11,7 C 24,3 C 2,6 km/h (1 Bft)
19.07.2021 15:55 20,5 C 19,2 C 19,8 C 24,1 C 24,1 C 3,6 C 57 % 63 % 1018,7 hPa 0,0 l/m 2,4 km/h (1 Bft) SW 225 5 min 11,7 C 24,1 C 0,0 km/h (0 Bft)
19.07.2021 16:00 20,3 C 19,2 C 19,6 C 23,6 C 23,6 C 3,3 C 57 % 61 % 1018,7 hPa 0,0 l/m 2,1 km/h (1 Bft) NW 315 5 min 11,5 C 23,6 C 3,1 km/h (1 Bft)
19.07.2021 16:05 20,3 C 19,2 C 19,6 C 23,3 C 23,3 C 3,0 C 58 % 62 % 1018,7 hPa 0,0 l/m 2,6 km/h (1 Bft) W-NW 292 0 min 11,8 C 23,3 C 13,0 km/h (3 Bft)
19.07.2021 16:10 20,1 C 19,2 C 19,6 C 23,1 C 23,1 C 3,0 C 58 % 61 % 1018,7 hPa 0,0 l/m 3,2 km/h (1 Bft) SW 225 0 min 11,6 C 23,1 C 0,0 km/h (0 Bft)
19.07.2021 16:15 20,3 C 19,2 C 19,9 C 24,3 C 24,3 C 4,0 C 58 % 60 % 1019,1 hPa 0,0 l/m 4,0 km/h (1 Bft) W 270 5 min 11,8 C 24,3 C 19,3 km/h (3 Bft)
19.07.2021 16:20 20,3 C 19,2 C 19,9 C 24,4 C 24,4 C 4,1 C 58 % 60 % 1019,1 hPa 0,0 l/m 3,5 km/h (1 Bft) NW 315 5 min 11,8 C 24,4 C 2,9 km/h (1 Bft)
19.07.2021 16:25 20,4 C 19,2 C 19,9 C 25,0 C 25,0 C 4,6 C 58 % 60 % 1019,1 hPa 0,0 l/m 3,7 km/h (1 Bft) NW 315 5 min 11,9 C 25,0 C 2,6 km/h (1 Bft)
19.07.2021 16:30 20,4 C 19,2 C 19,7 C 24,6 C 24,6 C 4,2 C 58 % 61 % 1019,1 hPa 0,0 l/m 3,1 km/h (1 Bft) W-SW 247 5 min 11,9 C 24,6 C 5,0 km/h (1 Bft)
19.07.2021 16:35 20,5 C 19,2 C 20,0 C 24,8 C 24,8 C 4,3 C 58 % 61 % 1018,7 hPa 0,0 l/m 2,3 km/h (1 Bft) NW 315 5 min 11,9 C 24,8 C 6,9 km/h (2 Bft)
19.07.2021 16:40 20,4 C 19,2 C 20,1 C 25,9 C 25,9 C 5,5 C 58 % 60 % 1018,7 hPa 0,0 l/m 2,6 km/h (1 Bft) W-SW 247 5 min 11,9 C 25,9 C 2,4 km/h (1 Bft)
19.07.2021 16:45 20,5 C 19,2 C 19,9 C 25,3 C 25,3 C 4,8 C 57 % 60 % 1018,7 hPa 0,0 l/m 3,2 km/h (1 Bft) W-SW 247 5 min 11,7 C 25,3 C 5,5 km/h (1 Bft)
19.07.2021 16:50 20,3 C 19,2 C 19,9 C 24,3 C 24,3 C 4,0 C 59 % 61 % 1018,7 hPa 0,0 l/m 2,9 km/h (1 Bft) SO 135 5 min 12,0 C 24,3 C 2,6 km/h (1 Bft)
19.07.2021 16:55 20,4 C 19,2 C 20,1 C 25,6 C 25,6 C 5,2 C 60 % 63 % 1018,5 hPa 0,0 l/m 2,9 km/h (1 Bft) W-SW 247 5 min 12,4 C 25,6 C 5,0 km/h (1 Bft)
19.07.2021 17:00 20,4 C 19,2 C 20,2 C 26,2 C 26,2 C 5,8 C 59 % 62 % 1018,5 hPa 0,0 l/m 3,2 km/h (1 Bft) SW 225 5 min 12,1 C 26,2 C 3,7 km/h (1 Bft)
19.07.2021 17:05 20,5 C 19,3 C 20,3 C 26,7 C 26,7 C 6,2 C 59 % 62 % 1018,5 hPa 0,0 l/m 3,9 km/h (1 Bft) SW 225 5 min 12,2 C 26,7 C 3,1 km/h (1 Bft)
19.07.2021 17:10 20,6 C 19,3 C 20,4 C 26,8 C 26,8 C 6,2 C 59 % 62 % 1018,5 hPa 0,0 l/m 3,1 km/h (1 Bft) S-SW 202 5 min 12,3 C 26,8 C 8,4 km/h (2 Bft)
19.07.2021 17:15 20,6 C 19,3 C 20,2 C 26,3 C 26,3 C 5,7 C 58 % 61 % 1018,2 hPa 0,0 l/m 1,3 km/h (1 Bft) W 270 5 min 12,0 C 26,3 C 0,0 km/h (0 Bft)
19.07.2021 17:20 20,6 C 19,3 C 19,9 C 25,5 C 25,5 C 4,9 C 58 % 61 % 1018,2 hPa 0,0 l/m 1,4 km/h (1 Bft) S 180 5 min 12,0 C 25,5 C 2,7 km/h (1 Bft)
19.07.2021 17:25 20,4 C 19,3 C 19,9 C 25,0 C 25,0 C 4,6 C 58 % 60 % 1018,2 hPa 0,0 l/m 1,9 km/h (1 Bft) N-NO 22 5 min 11,9 C 25,0 C 0,0 km/h (0 Bft)
19.07.2021 17:30 20,4 C 19,3 C 19,9 C 25,0 C 25,0 C 4,6 C 58 % 61 % 1018,2 hPa 0,0 l/m 1,4 km/h (1 Bft) NW 315 5 min 11,9 C 25,0 C 1,6 km/h (1 Bft)
19.07.2021 17:35 20,5 C 19,3 C 19,9 C 25,4 C 25,4 C 4,9 C 58 % 61 % 1018,3 hPa 0,0 l/m 1,6 km/h (1 Bft) W-SW 247 5 min 11,9 C 25,4 C 2,7 km/h (1 Bft)
19.07.2021 17:40 20,5 C 19,3 C 19,8 C 24,8 C 24,8 C 4,3 C 58 % 60 % 1018,3 hPa 0,0 l/m 2,3 km/h (1 Bft) W-NW 292 5 min 11,9 C 24,8 C 2,7 km/h (1 Bft)
19.07.2021 17:45 20,3 C 19,3 C 19,8 C 24,1 C 24,1 C 3,8 C 57 % 59 % 1018,3 hPa 0,0 l/m 2,7 km/h (1 Bft) W 270 5 min 11,5 C 24,1 C 2,7 km/h (1 Bft)
19.07.2021 17:50 20,4 C 19,3 C 19,9 C 23,9 C 23,9 C 3,5 C 58 % 60 % 1018,3 hPa 0,0 l/m 3,5 km/h (1 Bft) W-SW 247 5 min 11,9 C 23,9 C 4,2 km/h (1 Bft)
19.07.2021 17:55 20,4 C 19,3 C 19,9 C 23,6 C 23,6 C 3,2 C 58 % 59 % 1018,2 hPa 0,0 l/m 3,4 km/h (1 Bft) W-NW 292 0 min 11,9 C 23,6 C 3,1 km/h (1 Bft)
19.07.2021 18:00 20,3 C 19,3 C 19,7 C 23,0 C 23,0 C 2,7 C 58 % 60 % 1018,2 hPa 0,0 l/m 2,7 km/h (1 Bft) W-SW 247 0 min 11,8 C 23,0 C 2,9 km/h (1 Bft)
19.07.2021 18:05 20,3 C 19,3 C 19,8 C 23,0 C 23,0 C 2,7 C 58 % 60 % 1018,2 hPa 0,0 l/m 1,4 km/h (1 Bft) W-SW 247 0 min 11,8 C 23,0 C 0,0 km/h (0 Bft)
19.07.2021 18:10 20,3 C 19,3 C 19,9 C 23,1 C 23,1 C 2,8 C 58 % 59 % 1018,2 hPa 0,0 l/m 1,4 km/h (1 Bft) W 270 0 min 11,8 C 23,1 C 3,4 km/h (1 Bft)
19.07.2021 18:15 20,5 C 19,3 C 20,1 C 23,1 C 23,1 C 2,6 C 58 % 61 % 1018,4 hPa 0,0 l/m 2,3 km/h (1 Bft) SW 225 0 min 11,9 C 23,1 C 5,3 km/h (1 Bft)
19.07.2021 18:20 20,5 C 19,3 C 20,0 C 23,0 C 23,0 C 2,5 C 58 % 59 % 1018,4 hPa 0,0 l/m 2,1 km/h (1 Bft) W-SW 247 0 min 11,9 C 23,0 C 0,0 km/h (0 Bft)
19.07.2021 18:25 20,4 C 19,3 C 19,8 C 23,0 C 23,0 C 2,6 C 57 % 59 % 1018,4 hPa 0,0 l/m 1,9 km/h (1 Bft) SW 225 0 min 11,6 C 23,0 C 0,0 km/h (0 Bft)
19.07.2021 18:30 20,2 C 19,3 C 19,7 C 22,9 C 22,9 C 2,7 C 58 % 60 % 1018,4 hPa 0,0 l/m 1,6 km/h (1 Bft) N-NO 22 0 min 11,7 C 22,9 C 3,2 km/h (1 Bft)
19.07.2021 18:35 20,2 C 19,3 C 19,7 C 23,7 C 23,7 C 3,5 C 59 % 62 % 1018,4 hPa 0,0 l/m 1,4 km/h (1 Bft) W 270 5 min 11,9 C 23,7 C 5,1 km/h (1 Bft)
19.07.2021 18:40 20,3 C 19,3 C 19,7 C 24,3 C 24,3 C 4,0 C 58 % 61 % 1018,4 hPa 0,0 l/m 2,3 km/h (1 Bft) S-SW 202 5 min 11,8 C 24,3 C 2,6 km/h (1 Bft)
19.07.2021 18:45 20,3 C 19,3 C 19,7 C 24,1 C 24,1 C 3,8 C 57 % 58 % 1018,4 hPa 0,0 l/m 3,4 km/h (1 Bft) W-NW 292 5 min 11,5 C 24,1 C 8,5 km/h (2 Bft)
19.07.2021 18:50 20,1 C 19,3 C 19,6 C 23,3 C 23,3 C 3,2 C 57 % 59 % 1018,4 hPa 0,0 l/m 3,1 km/h (1 Bft) W-SW 247 0 min 11,3 C 23,3 C 2,4 km/h (1 Bft)
19.07.2021 18:55 20,1 C 19,3 C 19,5 C 22,6 C 22,6 C 2,5 C 58 % 61 % 1018,4 hPa 0,0 l/m 2,1 km/h (1 Bft) W-NW 292 0 min 11,6 C 22,6 C 1,8 km/h (1 Bft)
19.07.2021 19:00 20,1 C 19,3 C 19,5 C 22,4 C 22,4 C 2,3 C 58 % 60 % 1018,4 hPa 0,0 l/m 1,8 km/h (1 Bft) NW 315 0 min 11,6 C 22,4 C 4,3 km/h (1 Bft)
19.07.2021 19:05 20,0 C 19,3 C 19,3 C 22,6 C 22,6 C 2,6 C 57 % 60 % 1018,4 hPa 0,0 l/m 2,3 km/h (1 Bft) W 270 0 min 11,2 C 22,6 C 4,7 km/h (1 Bft)
19.07.2021 19:10 19,9 C 19,3 C 19,2 C 22,4 C 22,4 C 2,5 C 58 % 61 % 1018,4 hPa 0,0 l/m 2,3 km/h (1 Bft) W-SW 247 0 min 11,4 C 22,4 C 4,3 km/h (1 Bft)
19.07.2021 19:15 19,8 C 19,3 C 19,1 C 21,5 C 21,5 C 1,7 C 58 % 62 % 1018,6 hPa 0,0 l/m 2,1 km/h (1 Bft) W-SW 247 0 min 11,3 C 21,5 C 2,4 km/h (1 Bft)
19.07.2021 19:20 19,7 C 19,3 C 19,1 C 21,4 C 21,4 C 1,7 C 59 % 61 % 1018,6 hPa 0,0 l/m 2,1 km/h (1 Bft) N-NO 22 0 min 11,5 C 21,4 C 0,0 km/h (0 Bft)
19.07.2021 19:25 19,7 C 19,3 C 19,1 C 21,9 C 21,9 C 2,2 C 59 % 61 % 1018,6 hPa 0,0 l/m 1,6 km/h (1 Bft) W 270 0 min 11,5 C 21,9 C 3,1 km/h (1 Bft)
19.07.2021 19:30 19,6 C 19,3 C 19,1 C 22,5 C 22,5 C 2,9 C 58 % 61 % 1018,6 hPa 0,0 l/m 1,8 km/h (1 Bft) S 180 5 min 11,1 C 22,5 C 0,0 km/h (0 Bft)
19.07.2021 19:35 19,6 C 19,3 C 19,0 C 22,8 C 22,8 C 3,2 C 58 % 62 % 1018,6 hPa 0,0 l/m 2,6 km/h (1 Bft) W 270 5 min 11,1 C 22,8 C 2,6 km/h (1 Bft)
19.07.2021 19:40 19,6 C 19,3 C 18,9 C 22,9 C 22,9 C 3,3 C 58 % 61 % 1018,6 hPa 0,0 l/m 2,1 km/h (1 Bft) W-NW 292 5 min 11,1 C 22,9 C 3,2 km/h (1 Bft)
19.07.2021 19:45 19,5 C 19,3 C 18,9 C 22,8 C 22,8 C 3,3 C 59 % 61 % 1018,6 hPa 0,0 l/m 1,8 km/h (1 Bft) S 180 5 min 11,3 C 22,8 C 0,0 km/h (0 Bft)
19.07.2021 19:50 19,5 C 19,3 C 18,7 C 22,5 C 22,5 C 3,0 C 59 % 61 % 1018,6 hPa 0,0 l/m 1,4 km/h (1 Bft) W 270 5 min 11,3 C 22,5 C 0,0 km/h (0 Bft)
19.07.2021 19:55 19,2 C 19,3 C 18,6 C 22,2 C 22,2 C 3,0 C 60 % 62 % 1018,5 hPa 0,0 l/m 0,8 km/h (0 Bft) W 270 5 min 11,2 C 22,2 C 0,0 km/h (0 Bft)
19.07.2021 20:00 19,2 C 19,3 C 18,5 C 22,0 C 22,0 C 2,8 C 60 % 63 % 1018,5 hPa 0,0 l/m 0,5 km/h (0 Bft) NO 45 5 min 11,2 C 22,0 C 0,0 km/h (0 Bft)
19.07.2021 20:05 19,1 C 19,3 C 18,3 C 21,7 C 21,7 C 2,6 C 61 % 63 % 1018,5 hPa 0,0 l/m 0,3 km/h (0 Bft) O-NO 67 5 min 11,4 C 21,7 C 0,0 km/h (0 Bft)
19.07.2021 20:10 18,9 C 19,3 C 18,3 C 21,4 C 21,4 C 2,5 C 61 % 65 % 1018,5 hPa 0,0 l/m 0,2 km/h (0 Bft) O-NO 67 5 min 11,2 C 21,4 C 0,0 km/h (0 Bft)
19.07.2021 20:15 18,8 C 19,3 C 18,1 C 21,1 C 21,1 C 2,3 C 61 % 66 % 1018,6 hPa 0,0 l/m 0,2 km/h (0 Bft) SO 135 5 min 11,1 C 21,1 C 0,0 km/h (0 Bft)
19.07.2021 20:20 18,7 C 19,3 C 17,9 C 20,7 C 20,7 C 2,0 C 61 % 67 % 1018,6 hPa 0,0 l/m 0,2 km/h (0 Bft) O-SO 112 5 min 11,0 C 20,7 C 0,0 km/h (0 Bft)
19.07.2021 20:25 18,5 C 19,3 C 17,6 C 19,8 C 19,8 C 1,3 C 63 % 69 % 1018,6 hPa 0,0 l/m 0,0 km/h (0 Bft) O-SO 112 5 min 11,3 C 19,8 C 0,0 km/h (0 Bft)
19.07.2021 20:30 18,3 C 19,3 C 17,4 C 18,9 C 18,9 C 0,6 C 63 % 69 % 1018,6 hPa 0,0 l/m 0,0 km/h (0 Bft) O-SO 112 0 min 11,1 C 18,9 C 0,0 km/h (0 Bft)
19.07.2021 20:35 18,1 C 19,4 C 17,1 C 18,0 C 17,9 C 0,0 C 64 % 70 % 1018,2 hPa 0,0 l/m 0,0 km/h (0 Bft) O-SO 112 0 min 11,2 C 17,9 C 0,0 km/h (0 Bft)
19.07.2021 20:40 17,9 C 19,4 C 17,0 C 17,7 C 17,4 C 0,0 C 64 % 71 % 1018,2 hPa 0,0 l/m 0,0 km/h (0 Bft) O-SO 112 0 min 11,0 C 17,4 C 0,0 km/h (0 Bft)
19.07.2021 20:45 17,6 C 19,4 C 16,8 C 17,3 C 16,8 C 0,0 C 65 % 72 % 1018,2 hPa 0,0 l/m 0,0 km/h (0 Bft) O-SO 112 0 min 10,9 C 16,8 C 0,0 km/h (0 Bft)
19.07.2021 20:50 17,4 C 19,4 C 16,7 C 17,1 C 16,5 C 0,0 C 66 % 72 % 1018,2 hPa 0,0 l/m 0,0 km/h (0 Bft) O-SO 112 0 min 11,0 C 16,5 C 0,0 km/h (0 Bft)
19.07.2021 20:55 17,3 C 19,4 C 16,5 C 16,9 C 16,2 C 0,0 C 66 % 74 % 1018,3 hPa 0,0 l/m 0,0 km/h (0 Bft) O-SO 112 0 min 10,9 C 16,2 C 0,0 km/h (0 Bft)
19.07.2021 21:00 17,0 C 19,4 C 16,3 C 16,7 C 16,0 C 0,0 C 67 % 74 % 1018,3 hPa 0,0 l/m 0,0 km/h (0 Bft) O-SO 112 0 min 10,8 C 16,0 C 0,0 km/h (0 Bft)
19.07.2021 21:05 16,8 C 19,4 C 16,3 C 16,4 C 15,7 C 0,0 C 68 % 74 % 1018,3 hPa 0,0 l/m 0,0 km/h (0 Bft) O-SO 112 0 min 10,9 C 15,7 C 0,0 km/h (0 Bft)
19.07.2021 21:10 16,7 C 19,4 C 16,2 C 16,3 C 15,6 C 0,0 C 68 % 76 % 1018,3 hPa 0,0 l/m 0,0 km/h (0 Bft) O-SO 112 0 min 10,8 C 15,6 C 0,0 km/h (0 Bft)
19.07.2021 21:15 16,5 C 19,4 C 16,1 C 16,2 C 15,5 C 0,0 C 70 % 76 % 1018,5 hPa 0,0 l/m 0,0 km/h (0 Bft) O-SO 112 0 min 11,0 C 15,5 C 0,0 km/h (0 Bft)
19.07.2021 21:20 16,4 C 19,4 C 16,0 C 16,1 C 15,5 C 0,0 C 70 % 76 % 1018,5 hPa 0,0 l/m 0,0 km/h (0 Bft) O-SO 112 0 min 10,9 C 15,5 C 0,0 km/h (0 Bft)
19.07.2021 21:25 16,3 C 19,4 C 15,9 C 16,0 C 15,4 C 0,0 C 71 % 76 % 1018,5 hPa 0,0 l/m 0,0 km/h (0 Bft) O-SO 112 0 min 11,0 C 15,4 C 0,0 km/h (0 Bft)
19.07.2021 21:30 16,3 C 19,4 C 15,9 C 16,0 C 15,4 C 0,0 C 71 % 76 % 1018,5 hPa 0,0 l/m 0,0 km/h (0 Bft) O-SO 112 0 min 11,0 C 15,4 C 0,0 km/h (0 Bft)
19.07.2021 21:35 16,2 C 19,4 C 15,8 C 15,9 C 15,3 C 0,0 C 72 % 77 % 1018,6 hPa 0,0 l/m 0,0 km/h (0 Bft) O-SO 112 0 min 11,1 C 15,3 C 0,0 km/h (0 Bft)
19.07.2021 21:40 16,1 C 19,4 C 15,8 C 15,8 C 15,3 C 0,0 C 72 % 78 % 1018,6 hPa 0,0 l/m 0,0 km/h (0 Bft) O-SO 112 0 min 11,0 C 15,3 C 0,0 km/h (0 Bft)
19.07.2021 21:45 16,0 C 19,4 C 15,7 C 15,8 C 15,3 C 0,0 C 73 % 78 % 1018,6 hPa 0,0 l/m 0,0 km/h (0 Bft) O-SO 112 0 min 11,2 C 15,3 C 0,0 km/h (0 Bft)
19.07.2021 21:50 16,1 C 19,4 C 15,6 C 15,8 C 15,3 C 0,0 C 73 % 78 % 1018,6 hPa 0,0 l/m 0,0 km/h (0 Bft) O-SO 112 0 min 11,3 C 15,3 C 0,0 km/h (0 Bft)
19.07.2021 21:55 15,9 C 19,4 C 15,5 C 15,7 C 15,3 C 0,0 C 73 % 78 % 1018,8 hPa 0,0 l/m 0,0 km/h (0 Bft) O-SO 112 0 min 11,1 C 15,3 C 0,0 km/h (0 Bft)
19.07.2021 22:00 15,9 C 19,4 C 15,5 C 15,7 C 15,4 C 0,0 C 73 % 78 % 1018,8 hPa 0,0 l/m 0,0 km/h (0 Bft) O-SO 112 0 min 11,1 C 15,4 C 0,0 km/h (0 Bft)
19.07.2021 22:05 15,9 C 19,4 C 15,5 C 15,7 C 15,4 C 0,0 C 74 % 78 % 1018,8 hPa 0,0 l/m 0,0 km/h (0 Bft) O-SO 112 0 min 11,3 C 15,4 C 0,0 km/h (0 Bft)
19.07.2021 22:10 15,8 C 19,4 C 15,6 C 15,7 C 15,4 C 0,0 C 74 % 79 % 1018,8 hPa 0,0 l/m 0,0 km/h (0 Bft) O-SO 112 0 min 11,2 C 15,4 C 0,0 km/h (0 Bft)
19.07.2021 22:15 15,9 C 19,4 C 15,5 C 15,7 C 15,4 C 0,0 C 74 % 79 % 1019,0 hPa 0,0 l/m 0,0 km/h (0 Bft) O-SO 112 0 min 11,3 C 15,4 C 0,0 km/h (0 Bft)
19.07.2021 22:20 15,8 C 19,4 C 15,5 C 15,7 C 15,4 C 0,0 C 75 % 79 % 1019,0 hPa 0,0 l/m 0,0 km/h (0 Bft) O-SO 112 0 min 11,4 C 15,4 C 0,0 km/h (0 Bft)
19.07.2021 22:25 15,9 C 19,4 C 15,5 C 15,7 C 15,4 C 0,0 C 75 % 79 % 1019,0 hPa 0,0 l/m 0,0 km/h (0 Bft) O-SO 112 0 min 11,5 C 15,4 C 0,0 km/h (0 Bft)
19.07.2021 22:30 15,9 C 19,4 C 15,5 C 15,7 C 15,4 C 0,0 C 75 % 79 % 1019,0 hPa 0,0 l/m 0,0 km/h (0 Bft) O-SO 112 0 min 11,5 C 15,4 C 0,0 km/h (0 Bft)
19.07.2021 22:35 15,8 C 19,4 C 15,4 C 15,7 C 15,4 C 0,0 C 75 % 80 % 1019,2 hPa 0,0 l/m 0,0 km/h (0 Bft) O-SO 112 0 min 11,4 C 15,4 C 0,0 km/h (0 Bft)
19.07.2021 22:40 15,7 C 19,4 C 15,4 C 15,6 C 15,4 C 0,0 C 75 % 80 % 1019,2 hPa 0,0 l/m 0,0 km/h (0 Bft) O-SO 112 0 min 11,3 C 15,4 C 0,0 km/h (0 Bft)
19.07.2021 22:45 15,7 C 19,4 C 15,4 C 15,6 C 15,4 C 0,0 C 75 % 80 % 1019,2 hPa 0,0 l/m 0,0 km/h (0 Bft) O-SO 112 0 min 11,3 C 15,4 C 0,0 km/h (0 Bft)
19.07.2021 22:50 15,7 C 19,4 C 15,4 C 15,6 C 15,4 C 0,0 C 75 % 80 % 1019,2 hPa 0,0 l/m 0,0 km/h (0 Bft) O-SO 112 0 min 11,3 C 15,4 C 0,0 km/h (0 Bft)
19.07.2021 22:55 15,6 C 19,4 C 15,4 C 15,5 C 15,4 C 0,0 C 75 % 80 % 1018,6 hPa 0,0 l/m 0,0 km/h (0 Bft) O-SO 112 0 min 11,2 C 15,4 C 0,0 km/h (0 Bft)
19.07.2021 23:00 15,6 C 19,4 C 15,4 C 15,5 C 15,4 C 0,0 C 76 % 80 % 1018,6 hPa 0,0 l/m 0,0 km/h (0 Bft) O-SO 112 0 min 11,4 C 15,4 C 0,0 km/h (0 Bft)
19.07.2021 23:05 15,6 C 19,4 C 15,4 C 15,5 C 15,4 C 0,0 C 76 % 81 % 1018,6 hPa 0,0 l/m 0,0 km/h (0 Bft) O-SO 112 0 min 11,4 C 15,4 C 0,0 km/h (0 Bft)
19.07.2021 23:10 15,6 C 19,4 C 15,4 C 15,5 C 15,4 C 0,0 C 76 % 81 % 1018,6 hPa 0,0 l/m 0,0 km/h (0 Bft) O-SO 112 0 min 11,4 C 15,4 C 0,0 km/h (0 Bft)
19.07.2021 23:15 15,7 C 19,4 C 15,4 C 15,6 C 15,4 C 0,0 C 77 % 81 % 1018,8 hPa 0,0 l/m 0,0 km/h (0 Bft) O-SO 112 0 min 11,7 C 15,4 C 0,0 km/h (0 Bft)
19.07.2021 23:20 15,6 C 19,4 C 15,4 C 15,5 C 15,3 C 0,0 C 77 % 82 % 1018,8 hPa 0,0 l/m 0,0 km/h (0 Bft) O-SO 112 0 min 11,6 C 15,3 C 0,0 km/h (0 Bft)
19.07.2021 23:25 15,6 C 19,4 C 15,3 C 15,5 C 15,2 C 0,0 C 77 % 82 % 1018,8 hPa 0,0 l/m 0,0 km/h (0 Bft) O-SO 112 0 min 11,6 C 15,2 C 0,0 km/h (0 Bft)
19.07.2021 23:30 15,6 C 19,4 C 15,3 C 15,5 C 15,2 C 0,0 C 78 % 82 % 1018,8 hPa 0,0 l/m 0,0 km/h (0 Bft) O-SO 112 0 min 11,8 C 15,2 C 0,0 km/h (0 Bft)
19.07.2021 23:35 15,7 C 19,4 C 15,2 C 15,5 C 15,2 C 0,0 C 78 % 82 % 1018,7 hPa 0,0 l/m 0,0 km/h (0 Bft) O-SO 112 0 min 11,9 C 15,2 C 0,0 km/h (0 Bft)
19.07.2021 23:40 15,6 C 19,4 C 15,2 C 15,4 C 15,1 C 0,0 C 78 % 82 % 1018,7 hPa 0,0 l/m 0,0 km/h (0 Bft) O-SO 112 0 min 11,8 C 15,1 C 0,0 km/h (0 Bft)
19.07.2021 23:45 15,6 C 19,4 C 15,2 C 15,4 C 15,1 C 0,0 C 78 % 83 % 1018,7 hPa 0,0 l/m 0,0 km/h (0 Bft) O-SO 112 0 min 11,8 C 15,1 C 0,0 km/h (0 Bft)
19.07.2021 23:50 15,6 C 19,4 C 15,3 C 15,4 C 15,1 C 0,0 C 78 % 83 % 1018,7 hPa 0,0 l/m 0,0 km/h (0 Bft) O-SO 112 0 min 11,8 C 15,1 C 0,0 km/h (0 Bft)
19.07.2021 23:55 15,6 C 19,5 C 15,2 C 15,4 C 15,0 C 0,0 C 78 % 83 % 1018,9 hPa 0,0 l/m 0,0 km/h (0 Bft) O-SO 112 0 min 11,8 C 15,0 C 0,0 km/h (0 Bft)
_ Min-Zeit 03:20 14:00 23:35 23:40 23:55 00:00 14:55 18:45 01:35 - 00:00 - - - 21:10 23:55 00:00
Minimum _ 15,4 C 19,1 C 15,2 C 15,4 C 15,0 C 0,0 C 54 % 58 % 1015,9 hPa - 0,0 km/h (0 Bft) - - - 10,8 C 15,0 C 0,0 km/h (0 Bft)
_ Max-Zeit 14:55 00:00 14:50 14:55 14:55 14:55 02:00 01:15 09:35 00:00 16:15 - - 09:40 00:00 14:55 16:15
Maximum _ 21,9 C 21,2 C 21,1 C 29,5 C 29,5 C 7,6 C 87 % 91 % 1021,0 hPa 0,0 l/m 4,0 km/h
W (1 Bft)
- - 5 min 14,7 C 29,5 C 19,3 km/h
W (3 Bft)
Durchschnitt _ 17,7 C 19,8 C 17,4 C 19,6 C 19,5 C 2,0 C 73 % 76 % 1018,4 hPa #0,0 l/m 1,1 km/h (1 Bft) W - #9:05 h 12,6 C 19,5 C 1,7 km/h (1 Bft)
2021 www.wetterstation-wechselburg.de